TimeCST,TemperatureF,Dew PointF,Humidity,Sea Level PressureIn,VisibilityMPH,Wind Direction,Wind SpeedMPH,Gust SpeedMPH,PrecipitationIn,Events,Conditions,WindDirDegrees,DateUTC
12:07 AM,53.6,51.8,94,29.76,7.0,SSE,15.0,-,0.00,,Scattered Clouds,160,2013-03-09 06:07:00
12:52 AM,54.0,51.1,90,29.70,10.0,South,16.1,-,0.00,,Mostly Cloudy,170,2013-03-09 06:52:00
1:00 AM,53.6,51.8,94,29.74,10.0,SSE,15.0,-,N/A,,Mostly Cloudy,160,2013-03-09 07:00:00
1:07 AM,53.6,51.8,94,29.74,10.0,South,18.4,24.2,N/A,,Overcast,170,2013-03-09 07:07:00
1:52 AM,55.0,53.1,93,29.68,9.0,South,20.7,31.1,N/A,,Overcast,170,2013-03-09 07:52:00
2:52 AM,55.0,52.0,89,29.67,9.0,South,23.0,28.8,0.01,,Overcast,170,2013-03-09 08:52:00
3:52 AM,55.0,53.1,93,29.63,8.0,South,20.7,28.8,N/A,,Overcast,170,2013-03-09 09:52:00
4:52 AM,54.0,52.0,93,29.60,9.0,SSE,19.6,-,0.00,,Overcast,160,2013-03-09 10:52:00
5:11 AM,53.6,51.8,94,29.63,10.0,SSE,19.6,27.6,N/A,,Overcast,160,2013-03-09 11:11:00
5:52 AM,54.0,52.0,93,29.60,10.0,South,21.9,28.8,N/A,,Overcast,170,2013-03-09 11:52:00
6:52 AM,53.1,51.1,93,29.60,10.0,South,16.1,-,N/A,,Overcast,180,2013-03-09 12:52:00
7:23 AM,51.8,50.0,94,29.64,10.0,South,13.8,-,N/A,,Mostly Cloudy,180,2013-03-09 13:23:00
7:52 AM,52.0,50.0,93,29.61,10.0,South,18.4,25.3,N/A,,Mostly Cloudy,180,2013-03-09 13:52:00
8:52 AM,53.1,50.0,89,29.59,10.0,South,17.3,26.5,N/A,,Mostly Cloudy,180,2013-03-09 14:52:00
9:52 AM,57.9,48.9,72,29.55,10.0,South,19.6,28.8,N/A,,Clear,180,2013-03-09 15:52:00
10:52 AM,63.0,45.0,52,29.51,10.0,South,24.2,33.4,N/A,,Clear,180,2013-03-09 16:52:00
11:52 AM,66.0,37.0,34,29.49,10.0,SW,28.8,38.0,N/A,,Clear,220,2013-03-09 17:52:00
12:52 PM,66.9,30.9,26,29.49,10.0,SSW,23.0,34.5,N/A,,Clear,210,2013-03-09 18:52:00
1:52 PM,66.9,30.9,26,29.46,10.0,SSW,27.6,35.7,N/A,,Partly Cloudy,200,2013-03-09 19:52:00
2:52 PM,69.1,18.0,14,29.43,10.0,SW,27.6,35.7,N/A,,Clear,230,2013-03-09 20:52:00
3:52 PM,69.1,15.1,13,29.43,10.0,SSW,19.6,28.8,N/A,,Clear,210,2013-03-09 21:52:00
4:52 PM,66.9,12.9,12,29.42,10.0,SW,23.0,29.9,N/A,,Clear,220,2013-03-09 22:52:00
5:16 PM,55.4,37.4,51,29.50,10.0,NNW,24.2,32.2,N/A,,Clear,340,2013-03-09 23:16:00
5:52 PM,46.9,35.1,63,29.52,10.0,NNW,24.2,32.2,N/A,,Clear,340,2013-03-09 23:52:00
6:52 PM,39.0,32.0,76,29.61,10.0,NNW,20.7,32.2,N/A,,Mostly Cloudy,330,2013-03-10 00:52:00
7:17 PM,37.4,30.2,75,29.64,10.0,NNW,23.0,31.1,N/A,,Overcast,330,2013-03-10 01:17:00
7:52 PM,37.0,30.0,76,29.66,10.0,NW,21.9,29.9,N/A,,Overcast,320,2013-03-10 01:52:00
8:10 PM,35.6,30.2,81,29.66,10.0,NNW,20.7,26.5,N/A,,Overcast,330,2013-03-10 02:10:00
8:52 PM,36.0,28.9,76,29.67,10.0,North,24.2,29.9,N/A,,Overcast,350,2013-03-10 02:52:00
9:40 PM,35.6,28.4,75,29.68,9.0,North,23.0,29.9,N/A,,Overcast,360,2013-03-10 03:40:00
9:52 PM,34.0,28.9,82,29.70,7.0,North,15.0,24.2,0.01,Snow,Light Snow,350,2013-03-10 03:52:00
10:52 PM,34.0,30.0,85,29.68,9.0,North,18.4,25.3,0.00,,Overcast,350,2013-03-10 04:52:00
11:52 PM,33.1,28.0,82,29.68,10.0,NNW,21.9,32.2,N/A,,Overcast,340,2013-03-10 05:52:00